[TLELIST] Archives

 

[list_settings.list_name] Current TLEs

July 6th 2021 PST

HST 1 20580U 90037B 21186.76892718 .00000628 00000-0 27022-4 0 9993 2 20580 28.4705 303.8913 0002464 260.9561 226.4354 15.09675665513785 ISS (ZARYA) 1 25544U 98067A 21187.46697458 .00000431 00000-0 16068-4 0 9991 2 25544 51.6441 247.3821 0002094 139.8380 359.0994 15.48767607291582 CXO 1 25867U 99040B 21189.26506779 .00000367 00000-0 00000-0 0 9999 2 25867 54.6122 254.4422 8359526 226.5475 0.0721 0.37803988 10515 ____________________________________________________________________ These 2-Line ...Continue Reading

[list_settings.list_name] Current TLEs

July 5th 2021 PST

HST 1 20580U 90037B 21185.77664274 .00000650 00000-0 28363-4 0 9991 2 20580 28.4706 310.4569 0002474 249.2707 234.5314 15.09674844513638 ISS (ZARYA) 1 25544U 98067A 21185.13411483 .00001998 00000-0 44753-4 0 9996 2 25544 51.6448 258.9183 0002195 136.4552 306.9141 15.48767231291223 CXO 1 25867U 99040B 21186.62029596 .00000274 00000-0 00000+0 0 9999 2 25867 54.6745 254.5493 8354973 226.5171 0.0709 0.37803695 21646 ____________________________________________________________________ These 2-Line ...Continue Reading

[list_settings.list_name] Current TLEs

July 4th 2021 PST

HST 1 20580U 90037B 21185.05685656 .00000643 00000-0 27893-4 0 9998 2 20580 28.4706 315.2195 0002482 240.9837 283.1493 15.09674153513773 ISS (ZARYA) 1 25544U 98067A 21185.13411483 .00001998 00000-0 44753-4 0 9996 2 25544 51.6448 258.9183 0002195 136.4552 306.9141 15.48767231291223 CXO 1 25867U 99040B 21186.62029596 .00000274 00000-0 00000+0 0 9999 2 25867 54.6745 254.5493 8354973 226.5171 0.0709 0.37803695 21646 ____________________________________________________________________ These 2-Line ...Continue Reading

[list_settings.list_name] Current TLEs

July 3rd 2021 PST

HST 1 20580U 90037B 21183.79171896 .00000648 00000-0 28210-4 0 9992 2 20580 28.4707 323.5906 0002508 226.1931 248.5073 15.09673007513334 ISS (ZARYA) 1 25544U 98067A 21184.03272880 .00001558 00000-0 36710-4 0 9996 2 25544 51.6448 264.3645 0002217 132.8621 285.6147 15.48759981291052 CXO 1 25867U 99040B 21183.97601741 .00000240 00000-0 00000+0 0 9995 2 25867 54.7291 254.6440 8349010 226.5018 0.1188 0.37802787 21634 ____________________________________________________________________ These 2-Line ...Continue Reading

[list_settings.list_name] Current TLEs

July 2nd 2021 PST

HST 1 20580U 90037B 21182.86953444 .00000633 00000-0 27321-4 0 9992 2 20580 28.4707 329.6921 0002542 215.6852 277.1714 15.09672078513192 ISS (ZARYA) 1 25544U 98067A 21183.33178624 .00001416 00000-0 34109-4 0 9992 2 25544 51.6447 267.8294 0002199 131.3581 336.4119 15.48756480290949 CXO 1 25867U 99040B 21183.97601741 .00000240 00000-0 00000+0 0 9995 2 25867 54.7291 254.6440 8349010 226.5018 0.1188 0.37802787 21634 ____________________________________________________________________ These 2-Line ...Continue Reading

[list_settings.list_name] Current TLEs

July 1st 2021 PST

HST 1 20580U 90037B 21181.72492772 .00000637 00000-0 27553-4 0 9999 2 20580 28.4708 337.2657 0002579 202.8973 176.8981 15.09671084513025 ISS (ZARYA) 1 25544U 98067A 21182.35859353 .00001433 00000-0 34425-4 0 9998 2 25544 51.6452 272.6420 0002244 127.3112 310.8257 15.48752842290796 CXO 1 25867U 99040B 21183.97601741 .00000240 00000-0 00000+0 0 9995 2 25867 54.7291 254.6440 8349010 226.5018 0.1188 0.37802787 21634 ____________________________________________________________________ These 2-Line ...Continue Reading

[list_settings.list_name] Current TLEs

June 30th 2021 PST

HST 1 20580U 90037B 21181.15624631 .00000576 00000-0 23894-4 0 9993 2 20580 28.4708 341.0286 0002590 196.6159 326.3738 15.09670249513186 ISS (ZARYA) 1 25544U 98067A 21181.39710693 .00001489 00000-0 35457-4 0 9991 2 25544 51.6457 277.3967 0002268 123.6935 350.1340 15.48749374290647 CXO 1 25867U 99040B 21181.33164093 .00000286 00000-0 00000-0 0 9998 2 25867 54.7618 254.7163 8342877 226.5101 0.1160 0.37804249 10494 ____________________________________________________________________ These 2-Line ...Continue Reading

[list_settings.list_name] Current TLEs

June 29th 2021 PST

HST 1 20580U 90037B 21179.89814177 .00000582 00000-0 24252-4 0 9993 2 20580 28.4708 349.3532 0002637 182.6853 329.1891 15.09669319512770 ISS (ZARYA) 1 25544U 98067A 21180.35647053 .00001725 00000-0 39780-4 0 9991 2 25544 51.6451 282.5413 0002258 121.3271 306.6160 15.48746009290482 CXO 1 25867U 99040B 21181.33164093 .00000286 00000-0 00000-0 0 9998 2 25867 54.7618 254.7163 8342877 226.5101 0.1160 0.37804249 10494 ____________________________________________________________________ These 2-Line ...Continue Reading

[list_settings.list_name] Current TLEs

June 28th 2021 PST

HST 1 20580U 90037B 21178.81620538 .00000563 00000-0 23060-4 0 9995 2 20580 28.4709 356.5120 0002683 171.2264 208.8746 15.09668379512615 ISS (ZARYA) 1 25544U 98067A 21179.19616177 .00002786 00000-0 59204-4 0 9995 2 25544 51.6447 288.2818 0002111 115.3417 319.0572 15.48742061290302 CXO 1 25867U 99040B 21181.33164093 .00000286 00000-0 00000-0 0 9998 2 25867 54.7618 254.7163 8342877 226.5101 0.1160 0.37804249 10494 ____________________________________________________________________ These 2-Line ...Continue Reading

[list_settings.list_name] Current TLEs

June 27th 2021 PST

HST 1 20580U 90037B 21177.82456610 .00000538 00000-0 21567-4 0 9995 2 20580 28.4710 3.0731 0002721 160.8446 219.2063 15.09667497512469 ISS (ZARYA) 1 25544U 98067A 21178.08461806 .00001947 00000-0 43855-4 0 9992 2 25544 51.6460 293.7779 0002361 112.8528 240.0903 15.48736575290120 CXO 1 25867U 99040B 21178.68761465 .00000344 00000-0 00000-0 0 9993 2 25867 54.8007 254.7991 8338625 226.5189 0.1185 0.37807751 10485 ____________________________________________________________________ These 2-Line ...Continue Reading
  • This mailing list is a public mailing list - anyone may join or leave, at any time.
  • This mailing list is announce-only.

International Space Station (ISS) / Hubble Space Telescope (HST) / Chandra X-Ray Observatory Orbital Data via EMAIL

Privacy Policy:

Private list